Regional Weather Roundup
Issued by NWS

Home | Current Version | Previous Version | Graphics & Text | Print | Product List | Glossary On
Versions: 1 2 3 4 5 6 7 8 9 10 11 12 13 14 15 16 17 18 19 20 21 22 23 24 25 26 27 28 29 30 31 32 33 34 35 36 37 38 39 40 41 42 43 44 45 46 47 48 49 50
000
ASUS45 KSLC 301110
RWRUT

UTAH REGIONAL WEATHER ROUNDUP
NATIONAL WEATHER SERVICE SALT LAKE CITY UT
500 AM MDT SAT JUL 30 2016

UTZ001>011-023>025-301200-

NORTHERN UTAH

CITY           SKY/WX    TMP DP  RH WIND       PRES   REMARKS
BRIGHAM CITY     N/A     64  49  57 CALM      29.93S
HILL AFB       CLEAR     72  39  29 E15       29.96S
LOGAN          CLEAR     55  49  80 CALM      29.96S
OGDEN          CLEAR     72  39  30 S9        29.93S
PROVO AIRPORT  MOCLDY    64  43  45 SE3       29.97S
SALT LAKE CITY PTCLDY    80  43  26 S8        29.92S
VERNAL         CLEAR     62  39  42 W3        30.02S
WENDOVER       CLEAR     77  39  25 E6        29.93S
HEBER CITY     MOCLDY    54  43  66 CALM      30.07F

$$

UTZ012>022-026-027-301200-

SOUTHERN/CENTRAL UTAH

CITY           SKY/WX    TMP DP  RH WIND       PRES   REMARKS
BLANDING       CLOUDY    70  44  38 NW3       30.18S
BRYCE CANYON   MOCLDY    59  42  53 W5        30.26S
CEDAR CITY     CLEAR     69  41  36 S3        30.08F
DELTA          PTCLDY    73  39  29 S10       29.99R
MILFORD        CLEAR     63  47  55 S6        30.01F
MOAB/CYNLANDS  CLOUDY    83  34  17 E6        29.93R
PRICE          CLOUDY    70  33  25 NE5       30.06F
ST GEORGE      PTSUNNY   81  48  32 CALM      29.90R

$$

REGIONAL REPORTS     COLORADO/ARIZONA

CITY           SKY/WX    TMP DP  RH WIND       PRES   REMARKS
CRAIG, CO      CLOUDY    45  37  73 CALM      30.13S
GRAND JUNCTION CLOUDY    69  39  33 SE5       29.99R
RIFLE          CLEAR     58  37  45 CALM      30.08S
MONTROSE       CLEAR     67  41  38 SE7       30.09F
CORTEZ         CLOUDY    62  46  55 CALM      30.13R
PAGE, AZ       CLOUDY    84  44  24 W3        29.96S
GRAND CANYON   CLOUDY    64  50  60 SE3       30.24F
KINGMAN        LGT RAIN  74  60  61 S14       30.02F
FLAGSTAFF      MOCLDY    57  51  80 SW3       30.25R

$$

REGIONAL REPORTS    NEVADA/IDAHO/WYOMING

CITY           SKY/WX    TMP DP  RH WIND       PRES   REMARKS
LAS VEGAS, NV  MOCLDY    87  60  40 S14G26    29.82R BLWGDUST
ELY            PTCLDY    54  44  69 S13       30.14F
ELKO           MOCLDY    71  42  35 W3        30.01F
POCATELLO, ID  CLOUDY    63  40  42 CALM      29.94S
BURLEY         CLEAR     64  45  49 SW7       29.89F
EVANSTON, WY   CLOUDY    60  32  34 SE7       30.17F
ROCK SPRINGS   CLOUDY    59  43  55 SE6       30.16F
KEMMERER         N/A     54  30  40 N9        30.20S

$$



USA.gov is the U.S. government's official web portal to all federal, state and local government web resources and services.